Temp
99 99 97 96 96 97 95 93 92 92 92 92 91 92 93 92 90 89 88 87 86 85 86 86 86 86 86 86 86 86 86 86 86 86 85 85 85 85 84 85 85 84 84 83 83 83 84 85 84 84 83 83 83 83 82 82 81 83 81 81 80 79 80
98 98 98 98 98 97 95 93 93 94 95 93 92 91 93 91 90 89 88 87 86 86 86 86 86 86 86 86 86 86 86 86 86 85 86 85 85 85 86 85 84 84 84 84 84 84 84 86 85 84 83 83 83 83 82 81 81 81 80 80 79 79 80
98 99 98 97 97 97 93 95 93 94 95 96 94 93 92 89 90 89 88 88 86 86 87 86 86 86 87 86 86 86 86 87 86 86 86 86 86 88 87 86 85 85 86 85 85 85 86 85 84 83 84 83 83 82 81 81 80 80 80 79 79 79 78
96 98 98 97 96 95 95 95 95 97 98 98 96 95 92 89 91 90 90 89 87 87 86 87 87 87 87 86 86 86 86 86 87 87 87 87 87 87 86 86 85 86 85 85 87 87 87 85 85 84 84 82 82 82 82 81 81 80 80 79 78 79 78
96 97 98 97 98 96 96 96 97 96 99 100 98 93 92 92 92 92 91 91 91 88 89 88 90 89 87 88 87 87 87 87 87 87 87 87 87 87 86 87 86 87 86 87 86 85 84 84 85 83 83 82 82 81 81 81 80 79 79 79 77 78 78
94 96 96 98 99 99 98 99 100 101 99 99 98 95 95 95 95 95 94 91 91 91 89 89 88 87 87 88 88 88 87 87 87 86 87 87 86 86 87 87 87 87 87 86 87 86 85 84 84 83 83 84 83 82 82 81 81 81 79 79 78 78 79
96 97 97 98 99 100 100 100 101 101 100 100 100 98 97 97 96 96 95 93 93 89 90 90 90 89 88 88 87 87 87 87 87 87 88 88 87 87 86 87 86 87 87 86 86 86 85 84 83 83 82 83 82 82 80 79 80 79 79 77 77 77 77
99 98 97 99 101 103 103 101 101 102 99 97 99 100 98 97 96 96 96 95 93 93 92 92 90 89 88 88 88 88 88 88 89 88 88 88 87 87 87 87 87 86 86 86 86 86 86 84 84 83 82 83 81 80 80 79 79 81 79 77 77 77 79
100 97 98 101 101 103 103 100 99 98 93 93 95 96 98 96 96 96 96 95 94 93 92 93 93 91 88 88 88 87 88 88 88 88 88 88 88 90 90 89 88 87 86 87 88 86 86 84 84 82 81 81 80 80 80 79 79 79 79 77 77 77 78
99 95 96 101 101 102 99 98 95 92 90 90 91 93 95 96 96 96 96 96 96 94 94 94 95 93 90 89 89 89 88 87 88 89 90 89 90 90 90 91 89 88 88 88 89 86 85 84 83 82 80 80 80 80 79 79 79 79 79 78 77 77 76
97 94 95 99 97 97 97 97 93 90 91 89 90 95 94 95 95 96 96 97 96 96 96 96 95 94 92 91 91 90 88 89 89 89 89 89 91 91 92 91 91 89 89 89 89 87 85 83 83 81 80 80 80 79 79 79 79 79 79 79 78 77 77
92 94 92 94 95 96 96 93 92 90 90 90 93 95 92 92 95 97 97 97 98 97 97 97 98 96 93 92 91 89 89 89 89 89 89 90 91 91 92 92 91 90 89 89 89 87 86 84 83 82 80 80 80 80 79 79 79 78 78 80 79 77 78
94 92 93 96 93 94 92 90 90 90 90 93 96 96 95 95 96 97 94 95 99 98 98 96 97 94 94 93 92 89 89 88 88 89 90 89 89 91 91 92 93 92 90 90 89 88 87 85 83 82 81 80 80 80 79 79 79 78 78 78 77 77 77
92 96 96 95 94 93 92 91 90 90 91 94 95 95 96 97 97 96 95 96 98 100 100 99 96 94 93 92 90 88 89 88 88 88 88 88 88 89 91 92 91 90 88 88 88 88 87 86 83 83 82 81 80 80 79 79 79 78 78 78 78 77 77
96 97 96 96 92 91 91 92 90 90 92 93 95 95 96 97 96 95 95 97 96 101 100 97 95 94 94 91 89 88 88 88 89 89 88 88 88 88 89 89 89 88 88 86 88 88 89 87 85 82 80 81 80 80 80 79 79 79 78 77 77 77 77
100 99 96 95 93 94 91 92 92 91 91 91 93 93 96 94 93 96 96 97 99 97 100 96 94 91 93 91 89 88 88 88 88 87 87 87 87 87 87 89 88 89 87 86 87 86 86 85 83 83 81 80 80 80 79 79 79 74 70 72 77 76 77
100 101 101 95 92 93 92 92 92 91 90 90 92 92 93 93 94 96 100 100 101 97 99 99 93 92 91 89 89 88 88 88 87 87 87 87 87 86 87 87 87 86 86 85 85 85 84 84 83 83 82 81 80 80 79 79 79 68 66 69 71 76 76
98 97 98 97 94 94 91 92 91 91 91 93 94 93 93 92 94 96 98 100 100 102 102 99 95 93 89 89 89 89 88 88 87 87 87 87 86 86 86 86 86 86 85 85 85 84 85 84 82 82 82 81 81 81 80 80 70 65 66 67 68 72 77
99 100 98 93 91 91 95 96 94 91 94 96 95 95 96 95 96 93 95 95 97 99 101 100 97 90 89 89 89 88 88 88 87 87 86 86 86 86 86 86 85 85 85 85 85 85 83 82 82 81 82 81 80 80 80 81 68 65 64 66 65 67 73
100 103 104 101 95 95 94 93 94 94 95 94 95 99 98 96 96 95 97 98 97 97 96 93 92 90 90 89 89 88 88 88 87 86 86 86 86 86 85 85 84 85 85 85 83 83 83 83 82 81 81 80 80 79 80 80 66 64 62 64 64 65 68
94 96 98 99 95 96 92 92 92 92 92 96 97 96 96 96 97 96 97 97 96 94 92 92 91 90 90 89 89 88 88 87 86 86 86 85 85 84 84 84 84 84 84 84 83 82 81 82 82 81 81 81 81 80 80 81 62 62 62 62 62 64 66
101 103 100 99 96 93 91 94 93 95 93 95 95 97 98 97 99 98 98 99 97 95 94 92 90 89 89 88 88 88 87 87 86 85 84 84 84 84 83 83 83 82 83 83 83 83 83 82 83 81 81 81 80 80 79 78 61 62 61 60 61 63 69
104 104 104 101 103 99 93 95 95 96 93 95 97 97 97 99 99 97 97 97 97 93 95 92 88 88 88 88 88 87 87 86 85 84 83 83 82 82 82 82 82 83 83 82 83 83 82 81 82 81 81 80 79 79 77 76 62 60 59 60 60 63 70
105 105 105 105 102 101 94 95 96 96 96 95 95 97 97 99 98 95 93 94 95 93 93 90 88 88 88 87 87 86 87 86 86 84 83 83 82 82 82 83 83 83 83 82 83 85 84 83 82 82 81 80 79 80 78 79 65 59 58 59 60 64 71
106 106 105 104 104 104 98 95 95 97 95 95 96 96 97 97 97 95 91 91 95 94 91 89 88 88 88 88 88 87 87 87 86 85 84 83 83 84 83 82 82 83 83 84 84 84 83 82 81 81 80 82 81 73 78 80 69 56 59 58 58 64 71
100 102 104 104 106 104 97 93 92 94 95 95 93 96 95 96 94 91 90 93 95 93 91 89 88 88 89 89 88 87 87 87 85 84 84 83 84 84 83 83 84 83 83 84 84 81 82 82 82 81 82 82 81 79 79 80 74 62 56 56 56 60 71
102 104 103 106 105 98 97 94 94 95 96 94 92 96 97 96 93 90 90 90 90 89 91 91 89 89 88 88 89 88 87 87 86 85 85 85 84 85 84 84 83 82 81 82 83 81 80 82 82 81 80 81 80 81 80 80 75 65 54 54 55 57 64
99 99 105 99 91 93 96 97 94 95 97 93 94 96 96 93 89 88 88 89 89 90 92 90 89 89 88 87 87 88 87 87 85 85 85 84 83 82 82 82 83 82 81 82 80 78 77 77 77 78 78 78 78 77 77 77 72 68 55 55 54 56 58
93 93 93 93 95 96 97 94 93 96 97 97 98 97 95 94 88 88 87 88 88 91 90 89 89 88 87 86 86 85 86 85 84 84 85 84 84 83 81 81 81 80 79 78 76 76 75 75 75 75 74 75 75 75 76 76 74 63 62 55 54 53 56
92 93 94 97 97 97 97 92 94 96 97 98 96 94 94 91 87 86 87 87 89 90 89 88 88 87 85 84 85 85 85 84 84 84 84 83 83 82 79 79 80 78 76 75 74 74 73 74 73 73 73 74 74 75 75 74 72 63 61 59 54 53 53
87 90 95 96 96 94 95 93 92 94 94 93 92 92 90 90 87 86 86 87 87 87 87 86 86 85 84 84 84 83 84 83 83 83 83 82 82 79 78 79 78 75 75 75 74 73 73 72 73 72 72 73 73 74 73 72 70 66 61 58 56 55 54
87 88 89 90 92 93 92 94 94 93 91 89 89 88 87 89 87 83 83 86 85 86 86 85 84 83 83 83 83 83 83 82 82 82 81 81 81 79 79 78 77 75 74 75 74 73 73 72 73 73 73 73 74 73 71 70 68 65 62 60 59 59 56
84 86 86 85 87 91 92 94 94 92 90 87 88 88 88 87 86 84 84 84 86 86 84 83 82 81 81 81 81 81 81 80 80 80 81 80 80 80 80 78 76 75 74 75 75 74 74 74 74 74 74 73 73 72 70 69 67 65 64 65 65 65 61
83 83 84 85 86 83 88 87 89 87 86 84 86 87 87 86 86 86 86 88 88 86 83 81 80 81 80 81 80 80 80 79 79 80 80 79 79 80 80 78 76 76 75 75 76 74 73 74 73 73 74 74 73 72 71 69 67 66 66 68 68 68 66
81 81 81 81 80 79 77 81 83 81 84 83 86 86 85 86 88 90 88 87 86 83 82 81 80 81 82 82 81 80 79 81 81 80 73 67 61 55 55 63 72 75 67 63 63 69 76 77 74 75 77 77 72 71 70 71 69 70 63 70 63 68 69
79 79 79 82 82 81 79 80 81 82 81 81 84 85 84 85 86 87 88 87 85 83 81 80 82 82 83 82 82 82 81 81 82 76 73 71 65 63 60 53 44 54 69 66 56 49 45 55 72 75 79 77 74 72 73 73 74 59 54 52 52 54 57
81 79 78 81 81 80 80 80 81 82 82 83 84 85 86 86 88 86 87 85 85 84 82 82 81 82 83 82 83 81 81 82 79 76 73 71 69 67 64 62 59 45 43 50 51 46 44 42 43 51 65 73 71 58 51 53 49 48 47 47 46 46 47
83 82 82 82 81 80 80 80 81 81 81 82 83 84 84 86 86 85 86 85 85 84 83 83 82 82 83 82 80 77 78 79 76 76 73 71 70 70 67 66 63 60 48 43 45 45 42 42 42 44 52 58 60 61 59 50 46 46 46 46 46 45 44
MSLP
999.64 999.96 1000.32 1000.48 1000.68 1000.96 1001.24 1001.40 1001.72 1002.20 1002.48 1002.84 1003.32 1003.68 1004.04 1004.32 1004.64 1005.04 1005.56 1006.04 1006.64 1007.16 1007.24 1007.44 1007.72 1008.00 1008.40 1008.68 1008.96 1009.20 1009.36 1009.64 1009.96 1010.36 1010.64 1010.84 1011.08 1011.40 1011.84 1012.04 1012.36 1012.56 1012.72 1013.16 1013.24 1013.32 1013.28 1013.16 1013.36 1013.64 1013.88 1014.08 1014.36 1014.56 1014.84 1015.04 1015.28 1015.36 1015.60 1015.72 1015.92 1016.08 1016.28
999.44 999.64 999.92 999.96 1000.04 1000.16 1000.36 1000.72 1001.12 1001.52 1001.76 1002.16 1002.84 1003.32 1003.60 1003.92 1004.20 1004.68 1005.08 1005.52 1006.04 1006.48 1006.80 1007.04 1007.40 1007.64 1007.92 1008.28 1008.52 1008.80 1009.16 1009.36 1009.60 1009.92 1010.20 1010.52 1010.68 1010.92 1011.12 1011.60 1011.92 1012.20 1012.32 1012.52 1012.68 1012.76 1012.92 1012.92 1013.04 1013.36 1013.64 1013.92 1014.24 1014.40 1014.72 1015.00 1015.20 1015.36 1015.56 1015.72 1015.96 1016.08 1016.20
998.72 998.84 999.20 999.40 999.48 999.52 1000.00 1000.28 1000.68 1000.88 1001.08 1001.48 1002.20 1002.80 1003.12 1003.40 1003.60 1004.08 1004.60 1005.12 1005.72 1006.12 1006.32 1006.56 1006.76 1007.08 1007.40 1007.80 1008.24 1008.52 1008.72 1009.00 1009.36 1009.68 1010.08 1010.28 1010.48 1010.60 1010.76 1011.08 1011.44 1011.72 1011.84 1011.92 1012.16 1012.44 1012.44 1012.68 1012.76 1013.04 1013.36 1013.80 1014.04 1014.36 1014.60 1014.92 1015.08 1015.24 1015.32 1015.44 1015.68 1015.96 1016.20
998.08 998.40 998.60 998.48 998.56 998.76 999.28 999.72 1000.12 1000.32 1000.44 1000.68 1001.24 1001.88 1002.56 1003.04 1003.16 1003.52 1003.92 1004.40 1005.20 1005.72 1006.16 1006.20 1006.40 1006.68 1006.96 1007.44 1007.84 1008.12 1008.36 1008.64 1008.88 1009.20 1009.48 1009.68 1010.04 1010.20 1010.56 1010.84 1011.04 1011.24 1011.60 1011.68 1011.68 1011.88 1012.08 1012.36 1012.64 1012.88 1013.08 1013.56 1013.92 1014.16 1014.44 1014.68 1014.88 1015.04 1015.12 1015.36 1015.68 1015.88 1016.04
997.32 997.68 997.84 998.12 998.40 998.68 999.12 999.48 999.68 999.80 999.96 1000.12 1000.56 1001.20 1001.84 1002.36 1002.76 1003.12 1003.52 1003.88 1004.36 1005.04 1005.32 1005.68 1005.88 1006.12 1006.36 1006.68 1007.20 1007.48 1007.84 1008.20 1008.52 1008.72 1008.96 1009.12 1009.44 1009.80 1010.24 1010.48 1010.68 1010.92 1011.08 1011.16 1011.28 1011.64 1011.88 1012.12 1012.40 1012.68 1012.96 1013.24 1013.68 1013.96 1014.32 1014.48 1014.76 1014.92 1015.16 1015.36 1015.72 1015.72 1015.92
997.28 997.28 997.44 997.60 997.64 998.00 998.48 998.72 998.96 999.20 999.80 1000.28 1000.52 1001.08 1001.52 1002.04 1002.40 1002.84 1003.12 1003.56 1004.04 1004.48 1004.88 1005.24 1005.52 1005.68 1006.16 1006.32 1006.68 1007.04 1007.32 1007.72 1008.00 1008.28 1008.56 1008.80 1009.16 1009.56 1009.80 1009.88 1010.12 1010.44 1010.72 1010.88 1010.92 1011.24 1011.40 1011.68 1012.00 1012.40 1012.84 1013.08 1013.44 1013.80 1014.08 1014.40 1014.60 1014.80 1015.08 1015.24 1015.44 1015.48 1015.64
996.44 996.36 996.64 996.68 996.92 997.20 997.60 998.00 998.28 998.56 999.04 999.64 1000.08 1000.68 1001.28 1001.72 1002.12 1002.40 1002.64 1003.16 1003.56 1004.28 1004.60 1004.88 1004.96 1005.20 1005.56 1005.80 1006.24 1006.60 1007.08 1007.44 1007.72 1008.00 1008.12 1008.44 1008.68 1009.08 1009.28 1009.36 1009.56 1009.92 1010.04 1010.28 1010.64 1010.76 1011.12 1011.44 1011.76 1012.12 1012.52 1012.84 1013.20 1013.48 1013.80 1014.12 1014.40 1014.56 1014.84 1015.16 1015.44 1015.48 1015.60
994.64 995.36 995.32 995.52 995.96 996.36 996.72 997.08 997.44 997.80 998.32 999.04 1000.08 1000.32 1001.00 1001.20 1001.60 1001.96 1002.16 1002.44 1002.96 1003.40 1003.88 1004.12 1004.40 1004.56 1004.96 1005.28 1005.68 1006.16 1006.56 1006.92 1007.16 1007.48 1007.72 1008.16 1008.40 1008.64 1008.76 1008.96 1009.20 1009.40 1009.64 1010.00 1010.12 1010.32 1010.80 1011.16 1011.40 1011.76 1012.16 1012.60 1012.92 1013.12 1013.40 1013.68 1013.96 1014.16 1014.48 1015.00 1015.32 1015.48 1015.44
993.72 994.28 994.88 995.08 995.48 995.72 996.04 996.64 997.16 997.52 998.12 998.76 999.44 999.92 1000.40 1000.92 1001.12 1001.32 1001.60 1001.92 1002.24 1002.68 1003.08 1003.12 1003.44 1003.84 1004.36 1004.88 1005.32 1005.68 1005.96 1006.36 1006.80 1007.04 1007.40 1007.76 1008.00 1008.20 1008.28 1008.48 1008.80 1008.84 1009.24 1009.48 1009.72 1009.92 1010.28 1010.76 1011.04 1011.40 1011.80 1012.20 1012.52 1012.80 1013.00 1013.28 1013.52 1013.68 1014.08 1014.56 1014.96 1015.24 1015.28
993.36 994.08 994.08 994.28 994.68 995.20 995.60 996.04 996.80 997.56 998.28 998.64 998.96 999.44 999.76 1000.24 1000.60 1000.80 1001.08 1001.28 1001.60 1002.08 1002.36 1002.56 1002.76 1003.20 1003.88 1004.40 1004.84 1005.12 1005.60 1006.00 1006.24 1006.64 1006.92 1007.36 1007.40 1007.60 1007.68 1007.88 1008.20 1008.36 1008.72 1009.00 1009.20 1009.68 1009.92 1010.28 1010.68 1011.08 1011.48 1011.84 1012.16 1012.40 1012.60 1012.92 1013.16 1013.36 1013.60 1013.96 1014.36 1014.76 1014.96
993.24 994.08 994.40 994.64 995.20 995.36 995.48 995.88 996.72 997.28 997.52 997.96 998.40 998.76 999.16 999.80 1000.28 1000.40 1000.52 1000.64 1000.92 1001.24 1001.44 1001.76 1002.00 1002.64 1003.28 1003.80 1004.40 1004.76 1005.20 1005.56 1005.76 1006.20 1006.44 1006.64 1006.76 1007.00 1007.08 1007.32 1007.64 1007.88 1008.28 1008.60 1008.88 1009.16 1009.60 1010.04 1010.28 1010.76 1011.16 1011.48 1011.72 1011.96 1012.24 1012.48 1012.76 1013.08 1013.32 1013.52 1013.76 1014.16 1014.52
993.84 994.24 994.60 994.60 994.92 995.16 995.52 995.56 995.96 996.60 997.08 997.40 997.64 997.96 998.56 999.12 999.60 999.84 999.96 1000.00 1000.04 1000.56 1000.84 1001.16 1001.28 1001.84 1002.64 1003.24 1003.92 1004.36 1004.72 1005.00 1005.24 1005.56 1005.80 1005.96 1006.12 1006.36 1006.48 1006.72 1007.04 1007.44 1007.72 1008.00 1008.44 1008.72 1009.08 1009.56 1009.92 1010.28 1010.72 1010.96 1011.20 1011.44 1011.76 1012.00 1012.32 1012.64 1012.88 1013.16 1013.44 1013.76 1014.08
993.96 994.04 994.08 994.36 994.60 994.68 994.84 995.40 995.80 996.20 996.56 997.00 997.16 997.40 997.96 998.48 998.96 999.20 999.44 999.64 999.56 999.64 1000.04 1000.40 1000.76 1001.24 1001.96 1002.64 1003.16 1003.72 1004.12 1004.40 1004.60 1004.76 1005.08 1005.28 1005.52 1005.68 1005.92 1006.20 1006.40 1006.76 1007.20 1007.40 1007.84 1008.36 1008.80 1009.04 1009.44 1009.72 1010.12 1010.52 1010.80 1011.08 1011.36 1011.64 1011.92 1012.24 1012.56 1012.80 1013.12 1013.44 1013.76
993.56 994.56 994.64 994.52 994.84 995.16 995.36 995.48 995.56 995.88 996.16 996.40 996.80 996.96 997.36 997.76 998.12 998.56 998.84 999.12 999.08 999.08 999.40 999.72 1000.24 1000.80 1001.36 1002.04 1002.68 1003.12 1003.48 1003.64 1003.72 1004.00 1004.32 1004.60 1004.96 1005.24 1005.40 1005.64 1005.88 1006.16 1006.56 1007.00 1007.52 1007.84 1008.16 1008.64 1009.08 1009.36 1009.72 1010.12 1010.40 1010.68 1011.00 1011.32 1011.60 1011.88 1012.16 1012.44 1012.72 1013.08 1013.40
994.08 994.24 994.56 994.72 994.84 994.96 995.16 995.52 995.52 995.60 995.76 995.92 996.12 996.60 996.92 997.32 997.68 997.96 998.28 998.36 998.56 998.56 998.76 999.00 999.72 1000.32 1000.84 1001.48 1002.16 1002.52 1002.72 1002.96 1003.16 1003.36 1003.80 1004.24 1004.68 1004.92 1005.08 1005.28 1005.48 1005.72 1006.12 1006.60 1007.04 1007.28 1007.60 1007.96 1008.52 1009.08 1009.60 1009.88 1010.16 1010.44 1010.72 1011.04 1011.24 1011.36 1011.68 1012.04 1012.40 1012.64 1013.04
994.36 994.56 994.76 995.16 995.20 995.12 995.20 995.16 995.28 995.44 995.56 995.88 996.08 996.40 996.60 996.96 997.24 997.52 997.80 997.96 998.00 998.20 998.12 998.56 999.32 999.96 1000.40 1001.00 1001.48 1001.80 1002.12 1002.48 1002.80 1003.16 1003.48 1004.04 1004.36 1004.52 1004.68 1004.88 1005.16 1005.48 1005.88 1006.32 1006.60 1007.00 1007.28 1007.68 1008.24 1008.80 1009.28 1009.72 1010.00 1010.24 1010.52 1010.80 1010.84 1011.00 1011.24 1011.44 1011.76 1012.20 1012.60
993.36 992.88 992.84 993.88 994.40 994.68 994.72 994.80 994.84 995.12 995.48 995.76 995.92 996.08 996.24 996.44 996.68 996.96 997.24 997.40 997.52 997.80 997.64 997.96 998.84 999.44 999.92 1000.52 1000.76 1001.20 1001.64 1002.16 1002.56 1002.84 1003.44 1003.64 1003.92 1004.16 1004.48 1004.72 1004.96 1005.32 1005.76 1006.16 1006.52 1006.84 1007.12 1007.48 1008.12 1008.60 1008.96 1009.40 1009.72 1010.08 1010.28 1010.44 1010.52 1010.80 1011.16 1011.28 1011.40 1011.72 1012.16
993.04 992.68 992.68 993.20 993.96 994.24 994.56 994.52 994.72 994.92 995.24 995.40 995.52 995.76 996.00 996.32 996.52 996.76 997.00 996.80 996.96 997.00 997.12 997.64 998.28 998.96 999.48 999.84 1000.36 1000.80 1001.28 1001.68 1002.08 1002.64 1003.04 1003.36 1003.76 1004.00 1004.24 1004.56 1004.92 1005.36 1005.72 1006.08 1006.52 1006.72 1006.92 1007.40 1007.80 1008.16 1008.68 1009.12 1009.48 1009.72 1009.88 1010.04 1010.16 1010.56 1010.88 1011.12 1011.40 1011.64 1012.04
992.44 992.20 992.24 992.92 993.56 993.96 993.88 993.92 993.96 994.16 994.32 994.60 995.00 995.32 995.36 995.64 996.24 996.64 996.52 996.48 996.32 996.44 996.88 997.28 997.84 998.56 999.12 999.48 999.92 1000.40 1000.80 1001.24 1001.84 1002.36 1002.80 1003.16 1003.44 1003.76 1004.16 1004.60 1005.04 1005.40 1005.72 1006.04 1006.12 1006.48 1006.96 1007.24 1007.60 1008.00 1008.28 1008.76 1009.24 1009.44 1009.48 1009.60 1009.84 1010.28 1010.72 1011.00 1011.36 1011.64 1011.84
991.56 991.40 991.28 991.84 992.64 993.08 993.40 993.40 993.44 993.56 993.68 993.88 994.08 994.12 994.24 994.68 995.44 995.88 995.96 996.12 996.24 996.44 996.64 997.04 997.60 998.16 998.76 999.16 999.60 1000.00 1000.44 1001.00 1001.60 1002.20 1002.64 1002.96 1003.32 1003.72 1004.16 1004.60 1005.04 1005.24 1005.48 1005.80 1006.04 1006.44 1006.80 1007.00 1007.40 1007.72 1008.00 1008.28 1008.68 1008.96 1009.08 1009.28 1009.64 1010.12 1010.56 1010.92 1011.12 1011.40 1011.76
991.80 991.32 991.32 991.28 992.40 992.60 992.80 993.00 993.04 993.28 993.48 993.56 993.60 993.80 994.28 994.76 994.92 995.36 995.92 996.04 996.28 996.28 996.64 996.92 997.40 997.96 998.44 998.96 999.36 999.80 1000.32 1000.88 1001.48 1002.12 1002.60 1002.96 1003.36 1003.80 1004.24 1004.60 1004.92 1005.16 1005.44 1005.72 1006.08 1006.40 1006.72 1006.96 1007.28 1007.48 1007.68 1007.88 1008.16 1008.60 1008.92 1009.04 1009.48 1009.92 1010.28 1010.72 1011.00 1011.24 1011.60
991.08 990.80 990.96 990.88 991.00 991.52 992.36 992.28 992.60 992.80 993.04 992.72 993.20 993.64 993.80 994.28 994.36 995.04 995.56 995.60 996.04 996.32 996.56 996.92 997.44 997.88 998.28 998.88 999.28 999.76 1000.20 1000.80 1001.52 1002.12 1002.60 1003.04 1003.44 1003.88 1004.28 1004.52 1004.80 1005.20 1005.28 1005.52 1005.84 1006.04 1006.32 1006.68 1006.88 1007.28 1007.52 1007.64 1008.04 1008.44 1008.76 1008.84 1009.32 1009.72 1010.16 1010.60 1010.92 1011.08 1011.40
990.04 989.84 989.76 989.92 990.04 990.40 990.92 991.00 991.52 991.76 992.28 992.56 992.72 993.04 993.40 993.52 994.00 994.64 995.20 995.72 995.88 996.24 996.52 996.92 997.56 997.84 998.20 998.76 999.24 999.80 1000.24 1000.72 1001.40 1002.04 1002.56 1002.96 1003.48 1003.92 1004.16 1004.44 1004.68 1004.84 1004.88 1005.44 1005.72 1006.12 1006.48 1006.76 1006.96 1007.20 1007.56 1007.80 1008.00 1008.36 1008.64 1008.92 1009.28 1009.56 1009.80 1010.04 1010.32 1010.84 1011.24
989.24 989.12 989.16 989.24 989.16 989.44 990.20 990.28 990.44 990.80 991.52 992.08 992.28 992.24 992.52 992.88 993.60 994.40 995.16 995.56 995.72 996.20 996.56 997.08 997.52 997.64 998.08 998.68 999.08 999.56 1000.00 1000.48 1001.08 1001.84 1002.40 1002.84 1003.36 1003.76 1004.00 1004.16 1004.32 1004.64 1004.76 1005.36 1005.72 1005.92 1006.16 1006.36 1006.72 1006.96 1007.32 1007.76 1008.08 1008.12 1008.60 1008.64 1008.92 1009.08 1009.40 1009.80 1010.12 1010.48 1011.00
989.16 989.12 989.12 989.16 989.16 989.36 989.84 989.52 989.68 990.32 990.96 991.36 991.92 991.88 991.96 992.40 993.16 994.12 995.04 995.32 995.52 995.88 996.44 997.04 997.36 997.56 998.00 998.44 998.76 999.24 999.68 1000.16 1000.80 1001.44 1002.04 1002.64 1003.00 1003.28 1003.80 1004.12 1004.44 1004.56 1004.80 1005.20 1005.44 1005.64 1005.76 1006.16 1006.60 1006.88 1007.12 1007.44 1007.80 1008.00 1008.28 1008.36 1008.68 1008.96 1009.28 1009.68 1010.00 1010.40 1010.64
989.12 988.88 988.76 988.48 988.40 988.32 988.84 989.04 989.36 990.12 990.80 991.28 991.40 991.08 991.52 992.00 992.88 993.80 994.56 995.00 995.16 995.80 996.24 996.52 996.88 997.16 997.52 998.00 998.48 999.00 999.48 999.88 1000.48 1001.00 1001.56 1002.28 1002.72 1003.00 1003.44 1003.76 1004.20 1004.52 1004.84 1005.00 1005.28 1005.76 1005.92 1006.20 1006.52 1006.84 1007.00 1007.12 1007.48 1007.80 1008.04 1008.20 1008.52 1008.88 1009.12 1009.48 1009.84 1010.04 1010.24
988.08 987.88 987.96 987.68 987.56 987.52 988.48 989.00 989.00 989.68 990.16 990.40 990.52 990.72 991.12 991.72 992.80 993.84 994.32 994.64 995.20 995.68 995.64 995.68 996.12 996.80 997.36 997.84 998.44 999.00 999.52 1000.00 1000.60 1001.08 1001.36 1001.76 1002.32 1002.64 1003.04 1003.44 1003.92 1004.28 1004.76 1005.12 1005.28 1005.60 1006.00 1006.28 1006.44 1006.72 1006.96 1007.08 1007.32 1007.48 1007.72 1007.84 1008.36 1008.80 1009.08 1009.36 1009.64 1009.92 1010.08
988.68 988.48 987.24 987.00 987.08 987.20 988.16 988.64 989.08 989.36 989.72 990.04 990.28 990.44 990.84 991.52 992.76 993.64 994.24 994.68 995.24 995.28 995.04 995.44 995.96 996.48 997.12 997.84 998.40 998.96 999.44 999.88 1000.36 1000.68 1001.04 1001.44 1001.88 1002.44 1002.92 1003.16 1003.40 1003.84 1004.32 1004.68 1005.16 1005.80 1006.36 1006.60 1006.88 1007.08 1007.20 1007.32 1007.40 1007.60 1007.72 1007.80 1008.12 1008.76 1009.36 1009.28 1009.60 1009.84 1010.04
989.08 989.68 989.88 989.04 988.72 988.56 988.64 989.24 989.56 989.72 989.80 989.96 990.00 990.24 990.60 991.40 992.76 993.60 994.20 994.84 994.92 994.72 995.04 995.48 995.88 996.40 997.00 997.72 998.32 998.88 999.32 999.72 1000.12 1000.48 1000.72 1001.24 1001.60 1002.08 1002.68 1002.92 1003.32 1003.72 1004.12 1004.64 1005.20 1005.84 1006.48 1006.88 1007.16 1007.36 1007.68 1007.84 1007.76 1007.76 1007.88 1008.00 1008.20 1008.52 1009.12 1009.44 1009.48 1009.76 1010.20
989.64 989.32 989.92 989.76 989.44 989.04 989.04 989.80 989.88 989.84 989.68 989.76 990.00 990.28 990.64 991.56 992.92 993.68 994.36 994.84 994.36 994.60 995.08 995.52 995.92 996.40 997.12 997.84 998.40 998.88 999.32 999.68 1000.12 1000.44 1000.76 1001.20 1001.56 1002.00 1002.60 1003.00 1003.32 1003.80 1004.48 1005.04 1005.52 1006.12 1006.64 1007.04 1007.28 1007.64 1008.04 1008.16 1008.04 1007.92 1007.88 1008.08 1008.24 1008.56 1008.68 1009.20 1009.60 1009.88 1010.20
991.36 990.72 990.12 990.32 990.08 989.64 989.48 989.88 990.04 989.96 990.08 990.16 990.44 990.64 991.12 991.72 992.88 993.88 994.68 994.60 994.36 994.92 995.40 995.84 996.28 996.88 997.52 998.00 998.48 999.00 999.52 1000.00 1000.44 1000.80 1001.08 1001.40 1001.64 1002.28 1002.72 1003.08 1003.32 1004.04 1004.52 1005.04 1005.60 1006.08 1006.64 1007.08 1007.36 1007.80 1007.96 1007.96 1008.00 1008.00 1008.08 1008.32 1008.56 1008.92 1009.08 1009.20 1009.48 1009.68 1009.84
991.80 991.08 991.20 991.32 991.24 990.36 990.20 990.24 990.24 990.44 991.04 991.32 991.28 991.64 991.88 992.32 992.96 994.36 994.92 994.64 994.80 995.12 995.64 996.16 996.76 997.36 997.76 998.20 998.76 999.32 999.80 1000.44 1000.84 1001.04 1001.32 1001.64 1001.88 1002.32 1002.72 1003.32 1003.72 1004.20 1004.64 1005.08 1005.64 1006.12 1006.56 1007.00 1007.24 1007.52 1007.60 1007.72 1007.60 1007.84 1008.12 1008.44 1008.68 1009.04 1009.36 1009.60 1009.48 1009.48 1009.52
992.40 991.72 991.56 992.12 992.24 991.24 990.80 990.56 990.92 991.40 992.00 992.48 992.28 992.48 992.80 993.32 993.72 994.32 994.72 995.16 995.20 995.48 995.96 996.52 997.00 997.60 998.12 998.76 999.24 999.68 1000.08 1000.60 1001.04 1001.40 1001.68 1002.04 1002.36 1002.68 1003.00 1003.52 1004.08 1004.52 1004.92 1005.24 1005.76 1006.12 1006.40 1006.64 1007.00 1007.20 1007.40 1007.60 1007.64 1007.84 1008.20 1008.60 1008.80 1009.04 1009.16 1009.20 1009.40 1009.64 1010.16
992.28 991.84 991.68 991.80 992.00 992.12 991.80 991.96 992.04 992.64 993.04 993.40 993.28 993.20 993.60 994.00 994.36 994.64 995.00 995.32 995.52 995.92 996.40 996.96 997.40 998.00 998.60 999.04 999.44 999.92 1000.28 1000.76 1001.08 1001.40 1001.88 1002.36 1002.72 1002.96 1003.20 1003.76 1004.16 1004.80 1005.16 1005.44 1005.64 1006.00 1006.32 1006.56 1006.76 1006.92 1007.04 1007.28 1007.56 1007.84 1008.20 1008.60 1008.84 1008.96 1009.04 1009.12 1009.24 1009.52 1009.92
992.84 992.68 992.84 993.08 993.20 994.00 994.76 993.68 993.56 994.04 994.04 994.32 993.84 993.88 994.16 994.40 994.48 994.76 995.20 995.56 995.92 996.20 996.64 997.28 997.76 998.20 998.72 999.16 999.56 1000.12 1000.36 1000.72 1001.12 1001.64 1002.76 1003.72 1004.32 1005.16 1005.24 1004.76 1004.64 1004.96 1005.72 1006.12 1006.16 1005.84 1005.80 1006.04 1006.36 1006.44 1006.52 1006.72 1007.36 1007.76 1008.12 1008.16 1008.44 1008.40 1008.36 1008.56 1008.84 1009.12 1009.60
993.72 993.76 994.00 993.76 993.84 994.52 994.96 994.48 994.12 994.24 994.52 994.64 994.44 994.56 994.76 994.84 995.00 995.20 995.44 995.76 996.04 996.28 996.88 997.44 997.88 998.40 998.88 999.20 999.64 1000.12 1000.44 1000.76 1001.16 1002.08 1002.84 1003.60 1004.44 1004.72 1005.24 1005.84 1006.08 1005.80 1005.76 1006.40 1006.80 1006.64 1006.40 1005.96 1006.04 1006.08 1006.04 1006.48 1006.96 1007.16 1007.48 1007.60 1007.44 1007.68 1008.24 1008.60 1008.84 1009.00 1009.08
994.56 994.84 995.04 994.80 994.92 995.12 995.04 994.84 994.72 994.72 994.92 995.04 994.88 994.96 995.00 995.16 995.28 995.48 995.60 995.84 996.12 996.52 997.08 997.44 998.08 998.52 999.04 999.44 999.76 1000.08 1000.36 1000.76 1001.52 1002.12 1002.68 1003.36 1004.00 1004.40 1004.68 1005.24 1006.08 1006.88 1007.20 1007.12 1007.08 1006.68 1006.36 1006.36 1006.24 1006.00 1005.92 1006.28 1007.20 1007.64 1007.32 1007.20 1007.64 1008.00 1008.48 1008.80 1009.00 1009.16 1009.40
994.84 995.00 995.20 995.32 995.52 995.64 995.64 995.60 995.56 995.60 995.72 995.52 995.44 995.44 995.40 995.60 995.76 995.88 996.00 996.20 996.56 996.88 997.32 997.68 998.12 998.72 999.20 999.64 1000.24 1000.68 1000.96 1001.32 1001.84 1002.24 1002.96 1003.60 1003.92 1004.08 1004.40 1005.00 1006.08 1006.92 1007.36 1007.48 1007.16 1007.00 1006.96 1006.84 1006.68 1006.60 1006.44 1006.60 1006.96 1007.40 1008.28 1008.40 1008.20 1008.40 1008.64 1008.92 1009.12 1009.36 1009.60
Wind_Speed
17 16 14 12 13 16 16 14 18 18 18 17 18 20 21 17 16 15 15 17 18 18 17 16 16 15 16 13 13 12 11 11 9 9 9 8 8 8 8 8 8 7 8 8 7 7 6 6 7 8 8 6 5 5 5 4 5 3 4 2 2 2 4
19 17 17 18 17 18 18 15 16 17 17 15 16 19 19 18 16 16 16 17 19 19 19 18 17 15 15 14 12 13 13 12 11 9 9 8 8 7 9 9 8 8 8 8 7 6 8 6 8 8 8 7 6 6 6 5 4 5 4 4 4 3 3
19 17 17 16 15 15 17 15 16 18 18 18 18 19 20 18 17 17 17 18 19 18 18 18 18 16 15 14 14 14 13 12 11 12 12 10 11 11 9 9 9 8 7 8 8 8 9 8 7 9 9 8 8 6 7 6 6 6 6 6 6 5 5
18 18 16 15 13 13 17 18 17 20 20 21 21 21 20 18 17 17 17 18 20 19 20 19 18 17 16 15 15 14 14 14 12 12 12 11 11 10 9 9 9 8 8 8 9 9 8 8 8 7 9 8 7 7 8 8 7 7 7 7 5 6 6
22 21 18 14 15 12 14 16 16 17 21 23 20 18 19 19 18 16 16 18 21 21 21 20 18 17 14 15 13 12 14 14 13 12 12 11 11 10 10 11 10 11 10 10 8 9 8 9 9 8 8 8 8 7 9 8 8 7 6 6 6 6 6
19 17 15 15 14 14 15 18 20 20 20 21 20 18 20 22 21 24 21 19 19 20 18 19 19 17 16 16 14 13 13 13 13 12 12 11 11 11 11 12 12 12 12 11 9 9 9 9 10 10 10 9 10 9 9 9 8 8 7 6 7 6 7
18 21 17 15 13 14 16 17 19 18 17 18 17 17 19 21 23 23 21 21 22 21 22 23 21 18 16 15 14 15 15 15 14 15 13 13 12 12 12 12 11 12 11 10 10 10 10 11 10 10 10 11 10 10 10 10 9 9 7 7 7 5 5
14 17 18 17 15 15 15 15 16 17 14 13 15 19 22 21 22 23 23 22 22 22 22 23 21 17 16 15 15 16 16 17 15 14 13 14 13 13 13 13 11 11 10 12 12 11 12 12 11 11 12 11 11 10 11 11 10 11 9 8 8 7 6
11 17 17 19 18 17 15 12 11 12 13 13 15 16 20 20 22 22 23 23 22 22 23 23 21 18 15 15 15 17 16 16 15 15 15 16 14 17 16 14 12 12 13 12 12 12 12 12 12 12 12 11 11 11 12 12 11 10 10 10 9 9 8
10 19 20 19 18 15 13 15 15 13 14 14 15 16 19 20 20 21 21 22 22 24 24 22 20 19 17 16 17 17 16 16 15 19 19 19 17 19 18 16 15 13 13 13 11 12 12 13 12 12 13 13 12 12 11 12 11 10 10 11 11 10 10
9 15 13 16 17 15 14 16 17 16 17 18 20 20 17 18 20 21 21 22 22 22 23 21 19 19 19 20 21 20 17 19 18 18 19 19 18 20 19 18 17 14 15 14 13 13 12 12 12 12 13 13 14 13 12 13 12 12 11 10 10 11 10
15 12 14 14 16 15 15 15 15 15 14 13 17 18 17 18 20 21 20 22 21 21 21 21 19 20 20 20 20 18 19 19 17 19 21 20 19 20 19 18 16 15 15 15 14 14 14 14 13 13 14 14 14 14 13 12 13 12 11 11 11 11 10
9 10 14 14 14 13 10 12 15 16 15 13 16 17 16 18 20 20 17 18 21 19 19 18 18 17 19 20 21 17 19 18 18 17 19 17 16 16 16 17 18 18 17 15 15 15 15 14 15 13 14 14 13 14 14 13 13 12 11 11 10 11 10
17 10 8 8 9 8 9 11 15 15 16 16 17 18 16 18 19 19 16 18 18 19 19 17 16 16 17 17 17 16 18 17 17 17 17 15 14 14 15 16 15 14 13 13 15 16 16 15 15 13 13 14 13 13 12 12 12 12 12 11 11 11 11
13 19 14 12 12 10 11 9 11 15 16 16 17 19 19 18 18 16 15 15 16 17 19 16 16 16 17 17 16 16 16 16 15 15 15 14 14 14 14 14 13 12 12 13 13 12 13 14 14 13 13 13 13 13 12 12 12 11 12 12 12 10 11
16 15 15 11 9 10 8 8 8 10 12 11 15 16 17 16 16 17 17 16 17 15 15 15 16 15 16 17 16 15 15 15 13 14 14 14 15 15 14 13 13 12 12 13 13 11 11 11 12 13 14 14 13 12 12 11 10 12 18 15 11 11 10
13 17 17 17 15 13 11 11 10 11 12 12 13 15 16 14 15 16 20 19 20 16 15 14 15 16 16 16 16 15 15 14 14 13 13 14 14 14 14 13 12 11 10 11 12 12 10 10 13 13 12 13 13 14 12 11 10 16 16 17 17 12 10
17 12 9 15 13 12 13 13 13 13 14 14 14 14 13 12 13 15 18 17 18 19 17 14 16 17 16 14 15 15 16 15 14 13 13 13 13 13 12 11 10 9 8 8 10 10 10 10 11 12 12 11 12 14 12 12 12 17 18 17 16 13 9
18 16 9 13 14 16 17 18 16 15 16 16 15 14 15 13 13 14 15 15 15 15 17 16 17 15 15 14 16 16 15 14 14 13 12 12 12 11 10 10 9 9 8 8 8 9 9 9 10 11 11 11 12 13 13 11 14 18 17 16 15 14 11
16 15 13 11 18 15 14 11 12 14 16 15 17 20 19 17 16 13 13 12 10 14 15 13 14 15 16 14 15 15 14 13 13 12 11 10 10 9 9 9 9 9 7 6 6 8 8 9 10 10 11 11 12 12 11 10 13 18 17 16 17 16 11
7 10 11 9 11 18 16 15 14 15 15 17 19 15 14 13 13 12 13 12 13 12 12 11 12 15 14 14 13 13 13 13 12 11 11 10 10 9 9 9 8 8 7 7 8 8 8 8 9 9 10 11 10 10 10 8 17 18 19 17 16 15 11
16 15 9 7 9 9 16 17 17 18 17 15 14 15 17 17 17 17 18 18 14 12 11 9 11 14 14 13 13 13 13 13 12 12 11 11 10 10 10 9 9 9 8 7 7 6 7 7 8 9 10 9 10 10 11 8 19 17 17 17 16 18 9
22 17 14 12 12 10 17 15 16 16 13 14 17 17 18 17 18 17 17 17 15 12 12 10 12 14 14 13 13 13 14 14 14 13 12 11 11 10 9 9 9 9 8 8 8 8 8 8 9 6 8 9 9 9 8 7 15 18 19 19 19 13 9
21 19 16 15 15 11 15 16 16 16 18 18 18 18 16 17 17 15 14 15 14 13 13 11 13 13 13 14 14 13 13 13 13 13 12 11 11 11 9 8 7 7 7 8 9 11 11 8 7 6 7 8 8 9 9 8 14 20 20 18 19 16 11
22 22 22 20 19 15 16 18 20 17 18 19 20 17 16 17 18 16 15 14 17 16 14 13 13 13 14 14 14 13 12 12 12 12 13 11 10 10 11 10 8 7 7 8 8 7 5 6 6 6 6 9 9 9 10 9 12 18 17 18 18 15 10
18 19 21 22 22 21 10 16 15 18 20 19 17 18 16 18 16 16 15 15 17 16 14 15 14 14 13 13 13 12 12 11 12 12 12 11 10 9 8 8 9 9 8 6 5 3 3 5 6 6 7 6 7 8 8 9 5 13 16 18 17 18 10
9 12 14 19 22 20 11 15 18 19 21 16 16 16 17 16 15 14 14 14 14 15 15 15 15 15 14 13 14 13 12 10 11 11 11 11 10 10 10 10 9 8 7 7 6 3 2 3 4 6 4 6 6 7 9 8 6 10 16 16 17 17 13
11 17 17 5 3 11 14 15 13 15 16 12 14 14 14 14 14 13 13 14 15 14 13 14 15 14 14 14 13 14 14 13 12 11 11 11 11 10 10 9 9 9 9 8 6 6 5 4 3 2 2 2 2 0 2 4 8 9 11 16 16 17 16
6 9 11 8 6 9 9 9 11 14 13 14 16 13 13 14 15 14 13 13 13 13 13 14 14 15 15 14 14 13 13 13 13 11 10 10 10 10 11 9 8 7 7 6 8 8 7 5 3 3 1 2 3 4 3 3 3 12 10 12 15 15 14
6 8 6 4 8 9 11 9 8 8 9 12 10 10 11 13 15 13 13 13 12 13 14 14 14 15 15 14 13 13 12 12 12 10 9 11 9 9 9 9 7 8 7 8 7 7 6 5 4 3 4 6 5 4 5 4 3 9 14 12 13 12 13
14 13 5 3 5 4 5 8 8 7 7 7 8 7 10 13 14 14 13 11 12 14 14 14 14 14 14 13 12 11 11 10 9 9 8 8 8 8 9 8 9 9 8 8 7 6 6 5 5 5 6 7 6 5 5 5 4 4 6 12 13 14 14
6 6 8 11 6 3 6 7 6 8 10 11 12 11 10 11 14 15 12 12 13 14 14 14 14 13 14 13 12 12 12 12 11 9 9 9 6 7 7 7 8 8 8 7 7 6 7 6 6 7 7 6 6 5 7 6 5 5 6 6 11 13 14
4 2 4 3 4 3 3 8 10 11 13 14 14 15 14 16 15 14 11 12 14 14 13 14 14 14 13 13 13 11 11 11 9 9 9 7 7 6 6 7 7 8 7 6 6 6 6 6 7 7 7 6 5 6 7 6 5 5 5 6 6 4 4
9 13 12 8 9 11 6 7 10 12 11 10 11 13 15 14 14 14 13 13 14 14 13 13 13 13 13 14 12 10 10 9 11 11 8 7 5 6 8 8 8 7 6 6 6 7 6 6 7 7 6 6 5 6 7 6 6 6 7 6 6 6 6
13 14 12 13 13 11 7 7 10 9 12 10 10 12 13 13 14 15 14 12 12 12 13 13 13 13 14 13 12 11 9 10 10 9 9 9 9 8 8 6 3 5 7 7 5 2 3 7 6 6 6 6 6 7 7 8 8 8 8 8 8 8 9
14 15 13 12 12 12 10 10 10 11 11 9 9 11 12 13 12 12 13 13 12 12 13 13 13 14 13 12 12 12 11 10 11 11 10 9 7 7 8 14 15 10 6 5 6 6 5 5 3 3 4 5 4 2 7 8 6 13 14 13 12 9 9
13 12 10 11 14 14 12 12 12 11 11 9 9 10 11 11 12 11 12 11 11 12 12 11 10 10 11 11 10 10 9 10 10 10 9 9 8 7 8 8 10 15 14 10 4 7 11 10 7 8 8 7 5 5 10 14 15 16 14 14 13 12 11
14 14 14 14 13 13 12 12 11 11 11 10 10 11 11 13 13 11 12 11 11 10 9 9 9 10 10 10 9 8 7 8 9 9 9 9 8 9 9 9 8 7 11 11 10 11 12 13 13 11 11 15 11 8 5 8 14 16 15 14 14 13 12
Wind_Direction
207 199 194 203 198 192 199 187 183 193 200 191 187 187 190 190 189 183 182 179 181 181 182 182 184 184 185 183 184 184 184 181 180 182 181 174 177 169 166 170 180 173 172 172 178 175 183 182 163 157 169 168 174 150 150 167 166 173 150 150 161 110 160
195 191 194 197 204 194 192 188 185 189 195 186 184 185 191 191 186 184 183 180 182 183 181 183 184 186 184 184 183 183 184 184 180 180 178 178 174 174 170 170 178 180 170 171 172 174 175 192 164 165 164 163 168 162 160 165 173 171 168 164 175 181 161
184 186 190 194 201 192 189 191 191 196 199 192 185 185 191 190 187 184 180 180 181 184 184 185 185 184 183 182 183 184 183 184 182 180 182 182 180 180 172 167 176 178 178 171 171 183 173 187 172 167 167 165 170 172 163 170 174 184 179 176 175 177 176
175 182 191 191 198 188 184 191 196 196 197 197 192 189 188 188 186 184 183 181 180 183 186 187 185 185 182 181 184 184 183 184 185 183 185 186 180 179 173 173 175 177 184 186 178 180 179 177 183 168 166 159 168 169 174 177 183 187 190 171 177 178 181
168 178 189 186 191 184 180 190 199 196 198 199 194 186 186 185 184 185 183 184 185 185 187 185 187 188 184 183 183 185 183 184 184 185 188 186 177 176 177 184 180 184 185 190 182 181 185 173 175 172 169 165 169 170 175 181 183 187 191 171 182 183 179
173 176 181 181 187 186 185 194 204 202 199 201 196 186 187 189 189 191 188 184 186 186 185 186 188 185 185 182 184 183 182 183 185 185 188 185 176 178 182 188 183 186 187 188 184 182 179 176 174 174 175 173 178 177 179 182 185 183 186 186 189 189 188
174 176 168 176 182 186 190 197 200 199 192 202 202 191 191 192 193 193 191 189 187 185 186 189 190 187 184 181 183 181 182 183 184 188 187 186 180 178 186 191 185 185 192 180 187 181 181 178 177 175 179 181 182 182 180 182 187 179 183 189 191 193 195
188 170 167 172 176 184 188 190 188 191 186 182 200 202 196 194 194 194 194 190 188 188 189 189 190 188 182 182 182 184 183 185 185 187 188 188 183 185 186 191 186 184 190 185 185 181 184 179 179 178 177 182 182 184 179 183 186 178 180 182 186 198 196
182 162 163 174 180 177 172 169 176 184 178 183 193 207 197 195 196 194 193 191 190 189 190 190 190 185 178 181 183 184 181 182 185 186 188 189 187 192 192 190 188 187 194 189 185 182 184 181 184 180 178 181 182 185 181 183 186 182 178 181 185 195 202
200 167 167 178 178 171 174 171 172 185 187 192 198 208 190 193 196 194 193 193 191 191 189 190 189 185 178 181 185 183 180 182 183 189 191 193 192 193 195 193 192 191 193 194 188 184 183 181 184 179 179 182 183 187 183 182 186 187 183 180 183 193 199
150 160 155 163 168 175 180 174 179 190 192 192 193 199 183 186 195 196 195 194 192 191 189 190 188 184 182 184 186 185 182 183 185 190 192 193 192 194 195 195 194 192 194 194 196 186 182 181 184 181 182 185 184 186 185 183 186 187 185 183 184 189 199
139 143 161 165 170 172 181 179 176 183 190 189 186 184 180 184 193 199 198 197 193 191 189 191 189 185 183 184 186 183 183 185 187 190 195 194 194 193 195 196 194 191 192 194 195 184 185 181 185 184 185 188 186 186 185 182 185 186 187 187 185 189 197
134 148 166 165 170 175 175 166 173 178 181 184 183 182 182 183 191 198 197 196 196 191 189 187 190 183 183 184 187 183 186 186 188 190 195 194 193 193 194 197 197 195 193 192 193 190 190 186 186 185 185 188 187 186 186 182 184 185 188 190 186 190 194
127 171 172 167 162 166 174 169 180 177 182 180 182 185 184 184 191 196 197 195 197 192 189 188 187 184 180 182 186 184 185 189 190 190 194 193 190 192 196 198 198 194 187 188 193 194 192 188 186 185 186 187 189 187 183 183 183 184 188 189 188 187 194
155 170 169 167 162 169 176 175 171 179 182 185 180 183 184 186 192 196 198 195 194 196 192 184 184 183 181 179 183 184 186 190 192 192 191 189 187 193 196 197 199 194 182 184 192 196 193 189 185 182 185 188 189 186 182 187 187 186 186 188 188 189 192
194 186 156 159 170 176 179 177 163 168 175 177 182 182 188 186 190 194 196 193 191 197 191 180 181 182 182 180 181 181 184 189 190 192 191 188 189 194 196 196 195 194 186 183 188 191 193 182 178 183 184 187 188 183 185 190 193 189 186 185 185 187 190
224 212 188 171 177 181 178 179 170 166 168 180 182 186 189 191 190 192 200 198 195 195 193 178 177 180 183 181 179 177 181 184 190 189 190 191 193 194 196 197 195 193 186 183 186 190 192 179 175 183 186 187 184 183 190 192 194 184 182 185 186 183 189
249 249 187 171 172 181 181 181 177 168 174 176 184 185 189 190 190 190 201 200 198 194 195 182 176 180 182 176 174 175 180 184 185 186 189 189 192 193 195 195 194 194 191 185 182 187 186 184 176 176 178 185 186 188 191 195 185 177 183 183 183 186 189
233 228 214 173 168 181 186 187 178 178 176 181 182 184 188 189 191 197 201 205 198 189 196 188 179 177 178 173 173 176 179 179 181 182 183 186 187 187 187 188 191 191 190 195 182 174 184 179 171 177 178 183 189 194 191 194 173 176 177 177 178 187 196
221 228 231 192 178 180 184 183 183 177 177 179 185 190 191 188 193 199 205 211 198 194 194 191 173 175 175 170 172 172 172 172 174 176 176 174 173 173 175 179 182 184 171 158 154 170 175 180 176 177 184 185 190 194 192 196 162 171 172 177 187 191 199
252 225 213 227 169 181 175 183 178 178 177 183 188 187 186 188 190 188 197 208 203 197 192 191 167 170 170 168 167 164 164 165 164 167 163 163 164 166 169 174 170 173 165 165 168 174 174 177 182 179 187 189 187 192 189 180 160 170 177 182 186 191 200
247 230 227 217 219 186 177 175 179 179 182 181 176 180 186 190 192 195 198 205 202 194 191 179 160 161 162 162 161 157 157 158 158 157 153 154 157 163 168 168 166 172 170 167 167 168 165 171 185 188 191 189 184 194 191 166 163 170 175 178 186 193 189
254 252 248 241 227 200 171 179 177 177 170 174 179 182 187 186 190 192 193 199 196 188 185 168 159 159 157 155 151 153 155 154 154 150 152 152 153 162 167 169 171 174 172 176 174 173 172 181 191 187 194 193 188 189 188 158 169 172 181 181 187 186 196
260 264 262 257 255 233 173 173 177 167 173 176 180 182 181 181 185 184 188 193 187 179 179 161 162 158 153 152 153 154 155 155 153 152 157 160 166 166 172 179 182 179 166 178 187 196 194 192 191 188 192 197 192 190 182 182 178 181 184 183 189 187 192
249 248 253 258 260 249 187 174 173 165 174 175 180 179 175 177 180 182 185 187 186 181 173 158 158 157 155 155 154 154 153 155 156 159 163 164 167 167 169 178 176 182 175 189 204 205 187 180 182 191 174 196 203 196 192 197 180 186 183 188 185 185 190
242 238 235 232 241 253 211 174 164 164 173 174 178 174 175 174 176 179 181 182 180 178 170 158 156 155 155 155 151 153 155 161 158 160 162 157 162 165 156 158 170 176 182 187 185 183 181 161 179 182 189 187 204 197 200 211 145 186 185 184 182 185 184
272 257 245 230 226 232 197 173 165 167 173 173 173 172 174 173 172 175 177 174 175 177 170 155 149 151 153 149 155 153 152 154 158 160 156 155 158 161 157 164 164 157 162 174 179 156 116 171 187 177 174 187 193 210 192 208 168 183 181 178 182 188 192
10 347 286 274 129 167 158 165 153 160 166 159 170 169 170 166 164 166 168 169 171 168 159 148 146 148 146 149 153 155 159 159 156 160 156 156 160 162 152 155 154 157 159 172 161 135 124 101 84 97 149 152 193 75 150 177 163 164 185 178 180 188 194
60 41 2 84 92 87 119 125 147 161 163 163 173 173 160 154 153 158 162 164 158 154 149 146 145 143 142 145 148 151 152 152 154 157 158 159 163 156 148 148 151 145 146 133 116 121 119 119 117 116 42 291 217 176 185 223 170 156 173 191 187 189 186
64 97 97 14 114 149 131 134 153 162 167 168 165 159 151 141 149 152 157 153 148 143 142 143 139 136 136 139 142 145 146 145 151 154 154 156 152 141 134 141 138 127 118 112 117 118 118 119 118 135 213 227 212 189 193 157 98 160 168 172 184 184 176
7 357 12 122 108 103 132 130 155 166 144 121 132 126 128 137 141 141 140 137 132 131 134 133 131 130 132 133 134 133 135 139 143 140 142 141 141 129 131 135 125 119 118 122 123 121 130 148 170 198 214 218 193 182 144 133 122 114 160 168 163 171 173
359 33 9 339 339 88 119 157 175 131 107 96 94 92 102 120 123 120 116 118 121 125 125 126 126 127 128 128 129 134 139 145 141 133 128 134 132 124 121 120 122 122 124 125 128 139 157 169 189 203 211 207 202 168 153 140 126 129 141 168 170 182 186
3 13 93 100 266 237 172 170 150 128 119 113 109 106 105 106 107 109 113 117 122 122 123 123 122 121 123 127 131 132 134 131 126 126 122 103 97 106 112 111 117 123 126 133 147 164 173 185 199 202 204 202 194 148 143 145 141 152 163 171 174 168 141
52 53 46 48 36 356 32 64 108 118 113 107 115 123 123 113 110 114 123 126 123 121 117 116 117 118 119 121 121 123 123 121 118 120 117 93 109 134 136 125 121 132 142 161 176 175 177 194 208 208 202 190 164 154 159 154 158 176 178 180 168 156 146
53 54 56 55 61 62 36 83 91 104 109 108 107 113 114 122 125 127 124 120 119 118 114 110 111 114 118 118 119 114 111 119 127 111 87 81 72 50 30 30 57 99 70 33 27 8 197 204 194 200 210 192 155 163 169 176 180 191 183 170 167 165 158
59 61 50 48 67 78 68 59 75 82 80 84 99 104 108 107 111 116 117 118 115 113 111 115 118 120 120 123 123 126 129 137 133 111 110 101 96 92 77 65 53 35 74 86 47 49 27 46 195 225 205 168 126 152 191 193 184 139 150 143 140 133 131
88 92 86 74 73 64 63 64 67 73 80 92 102 108 110 110 108 105 104 105 110 113 115 119 119 121 123 127 133 132 136 139 125 122 118 118 118 110 112 95 56 47 44 49 43 38 50 52 41 46 89 120 128 44 59 101 112 124 128 128 126 126 129
80 83 87 82 76 74 73 69 64 64 62 61 65 70 80 90 91 92 102 106 112 117 118 124 122 125 127 121 107 106 120 117 118 122 121 123 130 125 119 106 103 71 38 38 41 45 51 50 45 46 86 108 114 113 49 80 111 125 130 130 129 130 137